#timestamp,LO_Frequency,Hit,StdDev 
1507377615.7,286046997.9,N
1507377635.6,286046995.9,N
1507377655.4,286046993.7,N
1507377675.2,286046993.8,N
1507377695.1,286046993.7,N
1507377696.0,286046993.7,N
1507377715.8,286046995.7,N
1507377735.6,286046996.4,N
1507377755.5,286046997.1,N
1507377775.3,286046997.3,N
1507377795.1,286046998.4,N
1507377815.8,286047000.7,N
1507377835.7,286046999.8,N
1507377855.5,286046999.9,N
1507377875.3,286046998.3,N
1507377895.2,286046996.6,N
1507377915.9,286046997.2,N
1507377935.7,286046993.7,N
1507377955.6,286046994.7,N
1507377975.4,286046991.7,Y
1507377995.2,286046995.9,P
1507378015.1,286046990.2,P
1507378016.0,286046990.2,P
1507378035.8,286046993.9,N
1507378055.6,286046992.6,N
1507378075.5,286046997.4,N
1507378095.3,286046995.9,N
1507378115.1,286046997.1,N
1507378135.9,286046999.2,N
1507378155.7,286046999.0,N
1507378175.5,286046996.9,N
1507378195.3,286046996.0,N
1507378215.2,286046999.6,N
1507378235.0,286046995.0,N
1507378235.9,286046995.0,N
1507378255.7,286046998.8,N
1507378275.6,286046997.2,N
1507378295.4,286046995.3,N
1507378315.2,286046999.0,N
1507378335.1,286046999.6,N
1507378336.0,286046999.6,N
1507378355.8,286047001.5,N
1507378375.6,286047001.6,N
1507378395.5,286047008.8,N
1507378415.3,286047007.3,N
1507378435.1,286047004.4,N
1507378455.9,286047003.0,N
1507378475.7,286046999.7,N
1507378495.5,286047001.1,N
1507378515.4,286046997.9,N
1507378535.2,286046995.0,N
1507378555.0,286046995.5,N
1507378555.9,286046995.5,N
1507378575.7,286046994.0,N
1507378595.6,286046996.1,N
1507378615.4,286046997.4,N
1507378635.2,286046998.5,N
1507378655.1,286046997.2,N
1507378656.0,286046997.2,N
1507378675.8,286046999.0,N
1507378695.6,286047000.4,N
1507378715.5,286046998.9,N
1507378735.3,286046998.5,N
1507378755.1,286047001.5,N
1507378775.9,286047003.8,N
1507378795.7,286047000.0,N
1507378815.5,286046996.9,N
1507378835.4,286046999.5,N
1507378855.2,286046997.0,N
1507378875.0,286046999.4,N
1507378875.9,286046999.4,N
1507378895.8,286046996.9,N
1507378915.6,286047000.8,N
1507378935.4,286046999.2,N
1507378955.2,286047000.9,N
1507378975.1,286046996.0,N
1507378976.0,286046996.0,N
1507378995.8,286046995.8,N
1507379015.6,286046995.5,N
1507379035.5,286046994.9,N
1507379055.3,286046997.8,N
1507379075.1,286046993.8,N
1507379095.9,286046990.3,Y
1507379115.7,286046996.3,P
1507379135.5,286046994.2,P
1507379155.4,286046997.4,N
1507379175.2,286046996.5,N
1507379195.0,286046995.3,Y
1507379195.9,286046995.3,P
1507379215.8,286046995.0,P
1507379235.6,286046996.9,P
1507379255.4,286046995.0,Y
1507379275.3,286047002.2,P
1507379295.1,286047002.1,N
1507379315.8,286047005.1,N
1507379335.7,286047005.0,N
1507379355.5,286047005.8,N
1507379375.3,286047007.1,N
1507379395.2,286047005.9,N
1507379415.9,286047004.4,N
1507379435.7,286047002.5,N
1507379455.6,286046999.7,N
1507379475.4,286047000.6,N
1507379495.2,286047000.3,N
1507379515.0,286047002.8,N
1507379516.0,286047002.8,N
1507379535.8,286047006.0,N
1507379555.6,286047008.9,Y
1507379575.5,286047000.2,P
1507379595.3,286046998.9,N
1507379615.1,286047001.6,N
1507379635.8,286047001.5,N
1507379655.7,286047000.1,N
1507379675.5,286047005.0,Y
1507379695.4,286047006.3,P
1507379715.2,286047001.6,N
1507379735.0,286047004.2,N
1507379735.9,286047004.2,N
1507379755.7,286047001.7,N
1507379775.6,286047001.5,N
1507379795.4,286047000.6,N
1507379815.2,286047000.0,N
1507379835.1,286047001.8,N
1507379836.0,286047001.8,N
1507379855.8,286047005.9,Y
1507379875.6,286047003.4,P
1507379895.5,286047001.4,N
1507379915.3,286047001.7,N
1507379935.1,286046999.8,N
1507379955.9,286047004.1,Y
1507379975.7,286047007.5,P
1507379995.5,286047001.5,N
1507380015.4,286047003.7,N
1507380035.2,286047003.3,N
1507380055.0,286047003.5,N
1507380055.9,286047003.5,N
1507380075.8,286047004.9,N
1507380095.6,286047007.4,Y
1507380115.4,286047002.6,P
1507380135.3,286047001.0,N
1507380155.1,286047001.0,N
1507380175.8,286047000.8,N
1507380195.7,286047000.8,N
1507380215.5,286047000.8,N
1507380235.3,286047003.4,Y
1507380255.2,286046999.5,P
1507380275.9,286046994.9,P
1507380295.7,286047001.0,N
1507380315.6,286047000.5,N
1507380335.4,286047001.0,N
1507380355.2,286046998.2,N
1507380375.1,286046998.2,N
1507380376.0,286046998.2,N
1507380395.8,286047000.4,N
1507380415.6,286047000.1,N
1507380435.4,286047001.3,N
1507380455.3,286047002.7,N
1507380475.1,286046998.7,N
1507380495.8,286046995.1,N
1507380515.7,286046992.3,Y
1507380535.5,286046995.8,P
1507380555.3,286046995.1,N
1507380575.2,286046990.1,P
1507380595.9,286046992.8,N
1507380615.7,286046991.7,N
1507380635.6,286046993.4,N
1507380655.4,286046995.8,N
1507380675.2,286046997.4,N
1507380695.1,286046995.7,N
1507380696.0,286046995.7,N
1507380715.8,286046995.6,N
1507380735.6,286046997.1,N
1507380755.5,286047002.2,N
1507380775.3,286047001.5,N
1507380795.1,286047001.1,N
1507380815.8,286047000.9,N
1507380835.7,286046996.9,N
1507380855.5,286046997.3,N
1507380875.3,286046996.6,N
1507380895.2,286046997.3,N
1507380915.9,286046995.9,N
1507380935.7,286046993.5,N
1507380955.6,286046993.5,N
1507380975.4,286046997.3,N
1507380995.2,286046997.9,N
1507381015.1,286046997.4,N
1507381016.0,286046997.4,N
1507381035.8,286046997.9,N
1507381055.6,286046996.9,N
1507381075.4,286046996.9,N
1507381095.3,286046998.6,N
1507381115.1,286046998.3,N
1507381135.8,286046995.7,N
1507381155.7,286046995.0,N
1507381175.5,286046993.3,N
1507381195.3,286046995.2,N
